Location: Unspecified
(0.0000°N, 0.0000°E)
Time: 01:30:02
(UTC+02:00)

ISS - All Passes

Search period start: 21 October 2017 00:00
Search period end: 30 October 2017 23:00
Orbit: 401 x 408 km, 51.6° (Epoch: 21 October)

Date Brightness Start Highest point End Pass type
(mag) Time Alt. Az. Time Alt. Az. Time Alt. Az.
21 Oct - 08:09:15 10° S 08:12:10 30° SE 08:15:04 10° ENE daylight
21 Oct - 19:43:33 10° N 19:45:58 19° NE 19:48:22 10° ESE daylight
21 Oct - 21:20:42 10° W 21:22:14 13° SW 21:23:47 10° SSW visible
22 Oct - 07:18:34 10° SSE 07:19:52 12° SE 07:21:11 10° ESE visible
22 Oct - 08:53:42 10° WSW 08:56:09 20° NW 08:58:34 10° N daylight
22 Oct - 20:26:58 10° WNW 20:29:56 32° SW 20:32:55 10° S visible
23 Oct - 08:00:40 10° SW 08:03:52 56° NW 08:07:02 10° NNE daylight
23 Oct - 19:34:23 10° NNW 19:37:39 80° NE 19:40:56 10° SE daylight
24 Oct - 07:08:27 10° SSW 07:11:35 44° SE 07:14:41 10° NE visible
24 Oct - 18:42:33 10° N 18:45:21 26° NE 18:48:09 10° ESE daylight
25 Oct - 06:17:06 10° SSE 06:19:15 16° SE 06:21:23 10° E visible
25 Oct - 07:53:40 10° W 07:55:31 14° NW 07:57:22 10° NNW daylight
25 Oct - 17:52:29 10° NE 17:53:01 10° NE 17:53:32 10° ENE daylight
25 Oct - 19:26:37 10° WNW 19:29:17 23° SW 19:31:58 10° S daylight
26 Oct - 07:00:08 10° SW 07:03:11 37° NW 07:06:13 10° NNE visible
26 Oct - 18:33:42 10° NW 18:36:57 68° SW 18:40:12 10° SSE daylight
27 Oct - 06:07:37 10° SSW 06:10:52 66° SE 06:14:04 10° NE visible
27 Oct - 17:41:34 10° NNW 17:44:37 37° NE 17:47:40 10° SE daylight
28 Oct - 05:15:52 10° S 05:18:30 22° SE 05:21:08 10° ENE night (unlit)
28 Oct - 06:54:10 10° WNW 06:54:46 10° NW 06:55:23 10° NW visible
28 Oct - 16:50:26 10° NNE 16:52:15 14° NE 16:54:05 10° E daylight
28 Oct - 18:26:18 10° W 18:28:31 17° SW 18:30:44 10° S daylight
29 Oct - 04:59:35 10° WSW 05:02:24 26° NW 05:05:11 10° N night (unlit)
29 Oct - 16:32:59 10° NW 16:36:08 45° SW 16:39:18 10° SSE daylight
30 Oct - 04:06:46 10° SW 04:10:02 83° NW 04:13:16 10° NNE night (unlit)
30 Oct - 15:40:34 10° NNW 15:43:46 54° NE 15:46:58 10° SE daylight
